UMMENDORF Weather Reports


time (UTC)temp
C
wind
direction
speed
KPH
gust
KPH
rain 1hr
cm
rain 24hr
cm
rain mn
cm
humidity
%
barometer
mb
20260506130211 17 226 8.0 0.0 0.00 0.00 0.00 49 1005.8
20260506123210 16 234 6.4 0.0 0.00 0.00 0.00 50 1005.7
20260506120210 16 43 4.8 0.0 0.00 0.00 0.00 50 1005.6
20260506113217 17 274 9.7 0.0 0.00 0.00 0.00 49 1005.8
20260506110210 16 13 12.9 0.0 0.00 0.00 0.00 50 1006.0
20260506100213 15 342 6.4 0.0 0.00 0.00 0.00 51 1006.3
20260506093211 15 270 6.4 0.0 0.00 0.00 0.00 49 1006.7
20260506090211 16 221 9.7 0.0 0.00 0.00 0.00 48 1006.8
20260506083211 15 287 8.0 0.0 0.00 0.00 0.00 50 1006.7
20260506080212 13 295 0.0 0.0 0.00 0.00 0.00 53 1007.0
20260506073211 12 308 4.8 0.0 0.00 0.00 0.00 57 1007.1
20260506070212 12 254 9.7 0.0 0.00 0.00 0.00 61 1007.2
20260506060210 10 138 4.8 0.0 0.00 0.00 0.00 72 1007.1
20260506050211 8 114 0.0 0.0 0.00 0.00 0.00 69 1007.2
20260506043211 8 121 4.8 0.0 0.00 0.00 0.00 67 1007.6
20260506040211 8 145 0.0 0.0 0.00 0.00 0.00 67 1007.7
20260506033211 8 145 0.0 0.0 0.00 0.00 0.00 67 1008.1
20260506030212 9 172 3.2 0.0 0.00 0.00 0.00 67 1008.4
20260506023211 9 262 0.0 0.0 0.00 0.00 0.00 67 1008.4
20260506020212 9 213 0.0 0.0 0.00 0.00 0.00 66 1008.7
20260506013211 9 219 6.4 0.0 0.00 0.00 0.00 66 1008.6
20260506010213 10 197 0.0 0.0 0.00 0.00 0.00 66 1009.3
20260506003209 10 197 1.6 0.0 0.00 0.00 0.00 66 1009.0
20260506000211 9 217 6.4 0.0 0.00 0.00 0.00 65 1009.2
20260505233209 9 215 0.0 0.0 0.00 0.00 0.00 65 1009.3
20260505230209 10 236 0.0 0.0 0.00 0.00 0.00 64 1009.6
20260505223210 10 240 1.6 0.0 0.00 0.00 0.00 62 1009.6
20260505220209 10 240 6.4 0.0 0.00 0.00 0.00 61 1009.5
20260505213211 11 246 1.6 0.0 0.00 0.00 0.05 61 1009.6
20260505210215 12 167 14.5 0.0 0.00 0.00 0.05 59 1009.4
20260505203209 12 201 11.3 0.0 0.00 0.00 0.05 59 1009.4
20260505200210 12 198 20.9 0.0 0.00 0.00 0.05 59 1009.6
20260505193209 13 205 12.9 0.0 0.00 0.00 0.05 58 1009.6
20260505190215 15 222 30.6 0.0 0.00 0.00 0.00 54 1008.9
20260505183212 16 231 19.3 0.0 0.00 0.00 0.00 50 1008.2
20260505180211 16 272 12.9 0.0 0.00 0.00 0.00 49 1007.8
20260505173210 17 251 14.5 0.0 0.00 0.00 0.00 46 1007.5
20260505170210 17 309 14.5 0.0 0.00 0.00 0.00 46 1007.3
20260505163211 18 225 4.8 0.0 0.00 0.00 0.00 43 1007.0
20260505153210 17 230 12.9 0.0 0.00 0.00 0.00 44 1007.6
20260505150216 17 293 8.0 0.0 0.00 0.00 0.00 43 1007.5
20260505140210 17 303 17.7 0.0 0.00 0.00 0.00 47 1007.5